User: anonymous   Login
Location: Geremba
(10.4250°N, 67.2394°W)
Time: 17:41:46
(UTC+00:00)
Language:

CZ-4B R/B - Orbit

View from above orbital plane
View from above orbital plane
View from above satellite
View from above satellite

Ground track
Ground track

The orbit data is extracted from the following two-line orbital elements,

1 27432U 02024C   24205.09794387  .00000160  00000-0  10632-3 0  9998
2 27432  98.9730 247.5889 0049279 269.3321 144.5781 14.14338467145265
Epoch (UTC): 23 July 2024 02:21:02
Eccentricity: 0.0049279
inclination: 98.9730°
perigee height: 809 km
apogee height: 880 km
right ascension of ascending node: 247.5889°
argument of perigee: 269.3321°
revolutions per day: 14.14338467
mean anomaly at epoch: 144.5781°
orbit number at epoch: 14526

The dashed part of the orbit path shows where the satellite is in the earth's shadow,  

DLR